{"data":{"norad_id":40384,"epoch":"2026-05-24T20:38:17.473344Z","epoch_age_seconds":97309,"freshness":"FRESH","line1":"1 40384U 15005A   26144.85992446 -.00000289  00000+0  00000+0 0  9992","line2":"2 40384   0.0160 339.1108 0001505 206.4935 311.3838  1.00271835 40764","mean_motion":1.00271835,"eccentricity":0.0001505,"inclination_deg":0.016,"raan_deg":339.1108,"arg_perigee_deg":206.4935,"mean_anomaly_deg":311.3838,"bstar":0,"rev_number":4076,"period_min":1436.0961879275,"perigee_km":35780.235154331,"apogee_km":35792.926734432,"semimajor_km":42164.717944381,"source":"CELESTRAK","updated_at":"2026-05-25T13:38:13.954852Z"}}